#timestamp,LO_Frequency,Hit,StdDev 
1601334015.5,286046999.9,N
1601334035.4,286046998.4,N
1601334055.2,286046998.3,N
1601334075.0,286046999.2,N
1601334075.9,286046999.2,N
1601334095.8,286046995.1,N
1601334115.6,286046998.0,N
1601334135.4,286046996.8,N
1601334155.3,286046998.7,N
1601334175.1,286046999.0,N
1601334195.9,286046996.9,N
1601334215.7,286046996.4,N
1601334235.5,286046997.2,N
1601334255.4,286046995.1,N
1601334275.2,286046994.3,N
1601334295.0,286046994.4,N
1601334295.9,286046994.4,N
1601334315.8,286046994.7,N
1601334335.6,286046993.5,N
1601334355.5,286046991.8,Y
1601334375.3,286046997.1,P
1601334395.1,286046996.9,P
1601334415.9,286046996.7,P
1601334435.7,286046997.7,Y
1601334455.6,286047002.1,P
1601334475.4,286047002.2,N
1601334495.2,286047003.5,N
1601334515.1,286047002.2,N
1601334516.0,286047002.2,N
1601334535.8,286047006.0,N
1601334555.6,286047002.3,N
1601334575.5,286047002.0,N
1601334595.3,286047002.2,N
1601334615.2,286047003.9,N
1601334635.9,286047004.1,N
1601334655.7,286047004.2,N
1601334675.6,286047002.3,N
1601334695.4,286047003.7,N
1601334715.2,286047003.1,N
1601334735.1,286047002.8,N
1601334736.0,286047002.8,N
1601334755.8,286047000.5,N
1601334775.7,286047000.9,N
1601334795.5,286047000.8,N
1601334815.3,286047000.8,N
1601334835.2,286047000.5,N
1601334855.0,286047000.4,N
1601334855.9,286047000.4,N
1601334875.8,286047000.7,N
1601334895.6,286047002.8,N
1601334945.5,286047001.5,E
1601334955.4,286047002.5,N
1601334975.2,286047002.6,P
1601334995.1,286047003.9,P
1601334996.0,286047003.9,Y
1601335015.8,286046996.5,P
1601335035.6,286046999.2,N
1601335055.5,286046996.7,N
1601335075.3,286046998.6,N
1601335095.2,286046996.8,N
1601335115.9,286046997.0,N
1601335135.7,286046998.7,N
1601335155.6,286046996.7,N
1601335175.4,286046998.6,N
1601335195.2,286046997.8,N
1601335215.1,286046999.7,N
1601335216.0,286046999.7,N
1601335235.8,286046999.7,N
1601335255.7,286046998.2,N
1601335275.5,286047000.0,N
1601335295.3,286047001.0,N
1601335315.2,286047001.7,N
1601335335.0,286047002.7,N
1601335335.9,286047002.7,N
1601335355.7,286047000.4,N
1601335375.6,286046998.5,N
1601335395.4,286047001.2,N
1601335415.3,286047002.8,N
1601335435.1,286046999.7,N
1601335436.0,286046999.7,N
1601335455.8,286047002.4,N
1601335475.7,286047004.0,N
1601335495.5,286047001.2,N
1601335515.4,286047001.4,N
1601335535.2,286047003.6,N
1601335555.0,286047002.4,N
1601335555.9,286047002.4,N
1601335575.8,286047002.5,N
1601335595.6,286046999.7,N
1601335615.4,286047002.1,N
1601335635.3,286047000.8,N
1601335655.1,286047000.7,N
1601335705.9,286046999.8,E
1601335715.8,286047001.7,N
1601335735.6,286047004.2,P
1601335755.5,286047001.7,N
1601335775.3,286047001.3,N
1601335795.2,286047002.2,N
1601335815.9,286047000.8,N
1601335835.7,286046998.8,N
1601335855.6,286046998.2,N
1601335875.4,286046998.6,N
1601335895.2,286046997.6,N
1601335915.1,286046999.0,N
1601335916.0,286046999.0,N
1601335935.8,286047002.6,N
1601335955.7,286047000.9,N
1601335975.5,286046999.7,N
1601335995.3,286047000.5,N
1601336015.2,286047000.7,N
1601336035.0,286046999.4,N
1601336035.9,286046999.4,N
1601336055.8,286046998.9,N
1601336075.6,286046996.6,N
1601336095.4,286047000.5,N
1601336115.3,286047001.9,N
1601336135.1,286047000.5,N
1601336155.9,286046999.4,N
1601336175.7,286046998.6,N
1601336195.5,286046999.7,N
1601336215.4,286046999.2,N
1601336235.2,286046996.5,N
1601336255.0,286046996.8,N
1601336255.9,286046996.8,N
1601336275.8,286046999.3,N
1601336295.6,286046999.9,N
1601336315.5,286047002.4,N
1601336335.3,286046998.7,N
1601336355.1,286047000.3,N
1601336375.9,286047003.8,N
1601336395.7,286047001.6,N
1601336415.5,286047002.9,N
1601336435.4,286047001.4,N
1601336455.2,286047003.8,N
1601336475.0,286047003.8,N
1601336476.0,286047003.8,N
1601336495.8,286047006.0,N
1601336515.6,286047001.6,N
1601336535.5,286047001.8,N
1601336555.3,286047004.4,N
1601336575.1,286046999.8,N
1601336595.9,286047002.8,N
1601336615.7,286047000.7,N
1601336635.6,286047000.2,N
1601336655.4,286047002.7,N
1601336675.2,286047002.4,N
1601336695.1,286047004.1,N
1601336696.0,286047004.1,N
1601336715.8,286047001.5,N
1601336735.6,286047005.9,N
1601336755.5,286047005.9,N
1601336775.3,286047001.3,N
1601336795.2,286047002.6,N
1601336815.9,286046998.9,N
1601336835.7,286047001.2,N
1601336855.6,286047002.6,N
1601336875.4,286047004.0,N
1601336895.2,286047001.6,N
1601336915.1,286047000.6,N
1601336916.0,286047000.6,N
1601336935.8,286046998.6,N
1601336955.7,286047000.4,N
1601336975.5,286046998.7,N
1601336995.3,286047000.2,N
1601337015.2,286046999.2,N
1601337035.0,286046997.2,N
1601337035.9,286046997.2,N
1601337055.7,286046999.1,N
1601337075.6,286047003.9,N
1601337095.4,286047005.7,N
1601337115.3,286047003.0,N
1601337135.1,286047005.9,N
1601337155.8,286047003.7,N
1601337175.7,286047003.1,N
1601337195.5,286047005.2,N
1601337215.3,286047005.1,N
1601337235.2,286047007.0,N
1601337255.0,286047005.5,N
1601337255.9,286047005.5,N
1601337275.8,286047004.9,N
1601337295.6,286047004.6,N
1601337315.4,286047007.4,N
1601337335.3,286047007.2,N
1601337355.1,286047005.4,N
1601337375.9,286047008.3,N
1601337395.7,286047009.6,Y
1601337415.5,286047005.3,P
1601337435.4,286047004.1,P
1601337455.2,286047003.3,P
1601337475.0,286047001.8,N
1601337475.9,286047001.8,N
1601337495.8,286047004.0,Y
1601337515.6,286046996.5,P
1601337535.5,286046997.4,N
1601337555.3,286046995.2,N
1601337575.1,286046997.8,N
1601337595.9,286046996.1,N
